N511WM KMKY-KMCO

Flight info

Callsign N511WM
Flight time 0h 47m
Altitude 17000
Route RSW MINEE6
Aircraft BE60/L-SDFGRY/C

Departure

Time 2026-04-20 16:44
Airport Marco Island Executive Airport (KMKY)

Arrival

Time 2026-04-20 17:31
Airport Orlando International Airport (KMCO)
Time Latitude Longitude Altitude Speed Heading
2026-04-20 16:06 26.00037 -81.67492 15 ft 0 kts 269°
2026-04-20 16:38 26.00051 -81.67506 15 ft 8 kts 49°
2026-04-20 16:38 26.00028 -81.67443 15 ft 13 kts 173°
2026-04-20 16:38 25.99900 -81.67424 14 ft 23 kts 168°
2026-04-20 16:38 25.99735 -81.67384 9 ft 25 kts 167°
2026-04-20 16:39 25.99540 -81.67338 8 ft 31 kts 167°
2026-04-20 16:39 25.99321 -81.67284 9 ft 32 kts 166°
2026-04-20 16:39 25.99106 -81.67234 12 ft 29 kts 164°
2026-04-20 16:39 25.98932 -81.67190 14 ft 19 kts 168°
2026-04-20 16:40 25.98836 -81.67170 17 ft 5 kts 159°
2026-04-20 16:40 25.98833 -81.67162 17 ft 0 kts 74°
2026-04-20 16:43 25.98833 -81.67161 17 ft 1 kts 75°
2026-04-20 16:43 25.98840 -81.67125 16 ft 10 kts 82°
2026-04-20 16:43 25.98863 -81.67100 16 ft 0 kts 348°
2026-04-20 16:43 25.98943 -81.67118 13 ft 43 kts 348°
2026-04-20 16:44 25.99454 -81.67249 13 ft 100 kts 351°
2026-04-20 16:44 26.00217 -81.67422 170 ft 124 kts 353°
2026-04-20 16:44 26.01093 -81.67607 529 ft 129 kts 351°
2026-04-20 16:44 26.01964 -81.67748 921 ft 124 kts 354°
2026-04-20 16:45 26.02809 -81.67901 1354 ft 122 kts 354°
2026-04-20 16:45 26.03638 -81.68064 1727 ft 125 kts 355°
2026-04-20 16:45 26.04559 -81.68234 1928 ft 143 kts 355°
2026-04-20 16:45 26.05586 -81.68429 2188 ft 152 kts 353°
2026-04-20 16:46 26.06636 -81.68632 2463 ft 158 kts 353°
2026-04-20 16:46 26.07732 -81.68843 2759 ft 162 kts 353°
2026-04-20 16:46 26.08851 -81.69059 3068 ft 165 kts 353°
2026-04-20 16:46 26.09990 -81.69278 3357 ft 167 kts 352°
2026-04-20 16:47 26.11141 -81.69500 3604 ft 168 kts 352°
2026-04-20 16:47 26.12302 -81.69722 3871 ft 170 kts 352°
2026-04-20 16:47 26.13466 -81.69947 4173 ft 169 kts 352°
2026-04-20 16:47 26.14626 -81.70171 4471 ft 169 kts 351°
2026-04-20 16:48 26.15785 -81.70392 4782 ft 169 kts 351°
2026-04-20 16:48 26.16938 -81.70616 5106 ft 168 kts 351°
2026-04-20 16:48 26.18095 -81.70838 5432 ft 168 kts 351°
2026-04-20 16:48 26.19249 -81.71061 5739 ft 168 kts 350°
2026-04-20 16:49 26.20401 -81.71281 6040 ft 168 kts 351°
2026-04-20 16:49 26.21164 -81.71428 6245 ft 168 kts 350°
2026-04-20 16:49 26.22318 -81.71648 6562 ft 168 kts 351°
2026-04-20 16:49 26.23457 -81.71872 6903 ft 165 kts 350°
2026-04-20 16:50 26.24591 -81.72090 7222 ft 165 kts 350°
2026-04-20 16:50 26.25719 -81.72307 7536 ft 164 kts 349°
2026-04-20 16:50 26.26846 -81.72525 7846 ft 164 kts 349°
2026-04-20 16:50 26.27974 -81.72743 8192 ft 165 kts 349°
2026-04-20 16:51 26.29109 -81.72961 8551 ft 166 kts 349°
2026-04-20 16:51 26.30233 -81.73177 8913 ft 166 kts 349°
2026-04-20 16:51 26.31373 -81.73397 9273 ft 166 kts 349°
2026-04-20 16:51 26.32517 -81.73619 9606 ft 168 kts 349°
2026-04-20 16:52 26.33664 -81.73840 9958 ft 166 kts 349°
2026-04-20 16:52 26.34799 -81.74059 10313 ft 164 kts 348°
2026-04-20 16:52 26.35917 -81.74274 10642 ft 163 kts 348°
2026-04-20 16:52 26.37036 -81.74491 10986 ft 164 kts 348°
2026-04-20 16:53 26.38162 -81.74709 11338 ft 164 kts 347°
2026-04-20 16:53 26.39290 -81.74927 11708 ft 164 kts 346°
2026-04-20 16:53 26.40412 -81.75143 12059 ft 164 kts 346°
2026-04-20 16:53 26.41539 -81.75361 12395 ft 164 kts 346°
2026-04-20 16:54 26.42668 -81.75580 12718 ft 165 kts 345°
2026-04-20 16:54 26.43805 -81.75800 13037 ft 166 kts 345°
2026-04-20 16:54 26.44948 -81.76021 13355 ft 167 kts 344°
2026-04-20 16:54 26.46100 -81.76245 13686 ft 168 kts 344°
2026-04-20 16:55 26.47253 -81.76467 14012 ft 168 kts 343°
2026-04-20 16:55 26.48409 -81.76690 14301 ft 169 kts 343°
2026-04-20 16:55 26.49569 -81.76915 14600 ft 169 kts 343°
2026-04-20 16:55 26.50729 -81.77140 14924 ft 170 kts 343°
2026-04-20 16:56 26.51894 -81.77366 15260 ft 169 kts 342°
2026-04-20 16:56 26.53059 -81.77575 15571 ft 172 kts 348°
2026-04-20 16:56 26.54251 -81.77562 15875 ft 174 kts 353°
2026-04-20 16:56 26.55450 -81.77529 16222 ft 172 kts 352°
2026-04-20 16:57 26.56636 -81.77506 16558 ft 169 kts 352°
2026-04-20 16:57 26.57811 -81.77483 16898 ft 169 kts 352°
2026-04-20 16:57 26.59026 -81.77466 17001 ft 184 kts 352°
2026-04-20 16:57 26.60365 -81.77445 17014 ft 201 kts 353°
2026-04-20 16:58 26.61812 -81.77414 17013 ft 214 kts 354°
2026-04-20 16:58 26.63336 -81.77381 17018 ft 225 kts 354°
2026-04-20 16:58 26.64937 -81.77349 17001 ft 235 kts 354°
2026-04-20 16:58 26.66598 -81.77315 17003 ft 243 kts 354°
2026-04-20 16:59 26.68310 -81.77280 16998 ft 249 kts 354°
2026-04-20 16:59 26.70055 -81.77245 17003 ft 253 kts 354°
2026-04-20 16:59 26.71826 -81.77209 16996 ft 255 kts 354°
2026-04-20 16:59 26.73612 -81.77174 17000 ft 258 kts 354°
2026-04-20 17:00 26.77249 -81.77104 16928 ft 264 kts 354°
2026-04-20 17:00 26.79066 -81.77067 16931 ft 264 kts 354°
2026-04-20 17:00 26.80902 -81.77031 16932 ft 264 kts 354°
2026-04-20 17:01 26.82735 -81.76996 16919 ft 264 kts 354°
2026-04-20 17:01 26.84567 -81.76960 16921 ft 264 kts 354°
2026-04-20 17:01 26.86406 -81.76924 16922 ft 264 kts 354°
2026-04-20 17:01 26.88241 -81.76888 16925 ft 264 kts 354°
2026-04-20 17:02 26.90076 -81.76852 16927 ft 264 kts 355°
2026-04-20 17:02 26.91912 -81.76816 16926 ft 264 kts 354°
2026-04-20 17:02 26.93748 -81.76781 16928 ft 264 kts 355°
2026-04-20 17:02 26.95584 -81.76745 16926 ft 264 kts 355°
2026-04-20 17:03 26.97418 -81.76708 16924 ft 264 kts 355°
2026-04-20 17:03 26.99246 -81.76673 16924 ft 263 kts 355°
2026-04-20 17:03 27.01080 -81.76637 16926 ft 263 kts 355°
2026-04-20 17:03 27.02908 -81.76602 16926 ft 263 kts 355°
2026-04-20 17:04 27.04736 -81.76565 16923 ft 263 kts 355°
2026-04-20 17:04 27.06561 -81.76530 16922 ft 262 kts 355°
2026-04-20 17:04 27.08386 -81.76495 16922 ft 262 kts 355°
2026-04-20 17:04 27.10210 -81.76458 16921 ft 262 kts 355°
2026-04-20 17:05 27.12034 -81.76424 16926 ft 262 kts 355°
2026-04-20 17:05 27.13856 -81.76387 16926 ft 262 kts 355°
2026-04-20 17:05 27.15679 -81.76351 16926 ft 262 kts 355°
2026-04-20 17:05 27.17479 -81.76316 16926 ft 262 kts 355°
2026-04-20 17:06 27.19301 -81.76280 16928 ft 262 kts 355°
2026-04-20 17:06 27.21121 -81.76245 16929 ft 262 kts 355°
2026-04-20 17:06 27.22942 -81.76208 16928 ft 262 kts 355°
2026-04-20 17:06 27.24761 -81.76173 16932 ft 262 kts 355°
2026-04-20 17:07 27.26582 -81.76137 16938 ft 261 kts 355°
2026-04-20 17:07 27.28399 -81.76101 16937 ft 261 kts 355°
2026-04-20 17:07 27.30213 -81.76066 16934 ft 261 kts 355°
2026-04-20 17:07 27.32027 -81.76029 16932 ft 261 kts 355°
2026-04-20 17:08 27.33841 -81.75994 16935 ft 261 kts 355°
2026-04-20 17:08 27.35654 -81.75960 16943 ft 260 kts 355°
2026-04-20 17:08 27.37469 -81.75923 16939 ft 260 kts 355°
2026-04-20 17:08 27.39281 -81.75887 16938 ft 260 kts 355°
2026-04-20 17:09 27.41090 -81.75852 16937 ft 260 kts 355°
2026-04-20 17:09 27.42901 -81.75816 16933 ft 260 kts 355°
2026-04-20 17:09 27.44713 -81.75780 16936 ft 260 kts 355°
2026-04-20 17:09 27.46524 -81.75744 16936 ft 260 kts 355°
2026-04-20 17:10 27.48336 -81.75709 16943 ft 260 kts 355°
2026-04-20 17:10 27.50145 -81.75673 16943 ft 260 kts 355°
2026-04-20 17:10 27.51957 -81.75636 16944 ft 260 kts 355°
2026-04-20 17:10 27.53765 -81.75601 16944 ft 260 kts 355°
2026-04-20 17:11 27.55573 -81.75566 16944 ft 260 kts 355°
2026-04-20 17:11 27.57383 -81.75531 16945 ft 260 kts 355°
2026-04-20 17:11 27.59193 -81.75495 16953 ft 260 kts 356°
2026-04-20 17:11 27.61003 -81.75459 16958 ft 261 kts 355°
2026-04-20 17:12 27.62832 -81.75424 16850 ft 266 kts 356°
2026-04-20 17:12 27.64743 -81.75389 16364 ft 281 kts 356°
2026-04-20 17:12 27.66712 -81.75346 15858 ft 284 kts 357°
2026-04-20 17:12 27.68677 -81.75302 15339 ft 280 kts 357°
2026-04-20 17:13 27.70601 -81.75263 14822 ft 274 kts 358°
2026-04-20 17:13 27.72490 -81.75228 14323 ft 268 kts 358°
2026-04-20 17:13 27.74332 -81.75192 13814 ft 262 kts 358°
2026-04-20 17:13 27.76120 -81.75156 13275 ft 258 kts 358°
2026-04-20 17:14 27.77900 -81.75122 12746 ft 254 kts 358°
2026-04-20 17:14 27.79651 -81.75087 12221 ft 250 kts 359°
2026-04-20 17:14 27.81378 -81.75051 11716 ft 247 kts 359°
2026-04-20 17:14 27.83079 -81.75016 11225 ft 243 kts 358°
2026-04-20 17:15 27.84758 -81.74986 10738 ft 240 kts 359°
2026-04-20 17:15 27.86417 -81.74956 10259 ft 237 kts 359°
2026-04-20 17:15 27.88059 -81.74920 9754 ft 234 kts 359°
2026-04-20 17:15 27.89682 -81.74888 9246 ft 232 kts 360°
2026-04-20 17:16 27.91272 -81.74856 8980 ft 220 kts 360°
2026-04-20 17:16 27.92784 -81.74827 8973 ft 218 kts 360°
2026-04-20 17:16 27.94303 -81.74797 8976 ft 218 kts 360°
2026-04-20 17:16 27.95820 -81.74765 8977 ft 218 kts 360°
2026-04-20 17:17 27.97334 -81.74736 8973 ft 218 kts 360°
2026-04-20 17:17 27.98852 -81.74706 8974 ft 219 kts 360°
2026-04-20 17:17 28.00366 -81.74676 9000 ft 220 kts 360°
2026-04-20 17:17 28.01911 -81.74643 8997 ft 225 kts
2026-04-20 17:18 28.03484 -81.74610 8994 ft 228 kts
2026-04-20 17:18 28.05070 -81.74581 8992 ft 228 kts 360°
2026-04-20 17:18 28.06652 -81.74550 8988 ft 227 kts
2026-04-20 17:18 28.08230 -81.74518 8992 ft 226 kts
2026-04-20 17:19 28.09796 -81.74451 8982 ft 225 kts
2026-04-20 17:19 28.11286 -81.73884 8986 ft 229 kts 26°
2026-04-20 17:19 28.12536 -81.72762 8987 ft 232 kts 45°
2026-04-20 17:19 28.13418 -81.71217 8973 ft 234 kts 58°
2026-04-20 17:20 28.14195 -81.69601 8973 ft 233 kts 57°
2026-04-20 17:20 28.14986 -81.67993 8975 ft 234 kts 56°
2026-04-20 17:20 28.15775 -81.66380 8971 ft 234 kts 58°
2026-04-20 17:20 28.16561 -81.64763 8906 ft 237 kts 58°
2026-04-20 17:21 28.17372 -81.63101 8543 ft 245 kts 58°
2026-04-20 17:21 28.18200 -81.61404 8152 ft 248 kts 59°
2026-04-20 17:21 28.19029 -81.59697 7768 ft 251 kts 58°
2026-04-20 17:21 28.19857 -81.57972 7435 ft 248 kts 58°
2026-04-20 17:22 28.20682 -81.56265 7115 ft 245 kts 58°
2026-04-20 17:22 28.21499 -81.54581 6814 ft 243 kts 58°
2026-04-20 17:22 28.22303 -81.52909 6492 ft 240 kts 59°
2026-04-20 17:22 28.23113 -81.51259 6149 ft 238 kts 58°
2026-04-20 17:23 28.23915 -81.49641 5833 ft 226 kts 59°
2026-04-20 17:23 28.24633 -81.48189 5473 ft 199 kts 58°
2026-04-20 17:23 28.25290 -81.46882 5113 ft 184 kts 61°
2026-04-20 17:23 28.25596 -81.45512 4830 ft 175 kts 81°
2026-04-20 17:24 28.25713 -81.44154 4600 ft 170 kts 82°
2026-04-20 17:24 28.25817 -81.42828 4335 ft 168 kts 82°
2026-04-20 17:24 28.25914 -81.41519 4163 ft 165 kts 82°
2026-04-20 17:24 28.25991 -81.40217 4016 ft 165 kts 82°
2026-04-20 17:25 28.26050 -81.38922 3814 ft 165 kts 83°
2026-04-20 17:25 28.26107 -81.37630 3621 ft 164 kts 82°
2026-04-20 17:25 28.26172 -81.36344 3424 ft 162 kts 82°
2026-04-20 17:25 28.26234 -81.35083 3172 ft 158 kts 82°
2026-04-20 17:26 28.26326 -81.33872 2928 ft 149 kts 68°
2026-04-20 17:26 28.26957 -81.33034 2711 ft 144 kts 29°
2026-04-20 17:26 28.27898 -81.32656 2485 ft 146 kts 12°
2026-04-20 17:26 28.28918 -81.32581 2249 ft 147 kts
2026-04-20 17:27 28.29934 -81.32553 2006 ft 146 kts
2026-04-20 17:27 28.30932 -81.32545 1830 ft 137 kts
2026-04-20 17:27 28.31853 -81.32555 1603 ft 131 kts
2026-04-20 17:27 28.32737 -81.32567 1584 ft 122 kts
2026-04-20 17:28 28.33550 -81.32578 1586 ft 111 kts
2026-04-20 17:28 28.34300 -81.32587 1519 ft 106 kts
2026-04-20 17:28 28.35038 -81.32594 1385 ft 107 kts
2026-04-20 17:28 28.35757 -81.32603 1257 ft 98 kts
2026-04-20 17:29 28.36413 -81.32608 1124 ft 91 kts
2026-04-20 17:29 28.37035 -81.32617 1009 ft 88 kts 10°
2026-04-20 17:29 28.37630 -81.32623 899 ft 83 kts
2026-04-20 17:29 28.38210 -81.32626 786 ft 84 kts
2026-04-20 17:30 28.38794 -81.32636 669 ft 84 kts
2026-04-20 17:30 28.39367 -81.32644 565 ft 79 kts 10°
2026-04-20 17:30 28.39921 -81.32644 455 ft 87 kts 12°
2026-04-20 17:30 28.40528 -81.32650 338 ft 88 kts 11°
2026-04-20 17:31 28.41117 -81.32656 235 ft 81 kts
2026-04-20 17:31 28.41656 -81.32664 114 ft 73 kts
2026-04-20 17:31 28.42086 -81.32666 100 ft 52 kts
2026-04-20 17:31 28.42396 -81.32666 98 ft 38 kts 358°
2026-04-20 17:32 28.42609 -81.32679 96 ft 23 kts 342°
2026-04-20 17:32 28.42653 -81.32785 97 ft 14 kts 270°
2026-04-20 17:32 28.42649 -81.32888 98 ft 10 kts 243°
2026-04-20 17:32 28.42567 -81.32917 96 ft 18 kts 178°
2026-04-20 17:33 28.42428 -81.32916 93 ft 23 kts 180°
2026-04-20 17:33 28.42277 -81.32916 96 ft 21 kts 180°
2026-04-20 17:33 28.42128 -81.32921 97 ft 17 kts 189°
2026-04-20 17:33 28.42090 -81.33014 97 ft 17 kts 269°
2026-04-20 17:34 28.42107 -81.33121 97 ft 17 kts 309°
2026-04-20 17:34 28.42170 -81.33141 96 ft 9 kts
2026-04-20 17:34 28.42197 -81.33142 95 ft 0 kts 358°